Location: Unspecified
(43.3830°N, 0.0000°E)
Time: 18:42:57
(UTC+00:00)

Vanguard 2 - Pass Details

Date: 24 June 2019
Orbit: 553 x 2938 km, 32.9° (Epoch: 19 July)

Event Time Altitude Azimuth Distance (km) Brightness Sun altitude
Rises 14:51:23 0° 258° (WSW) 5,062 12.4 50.1°
Reaches altitude 10° 14:58:40 10° 227° (SW) 4,711 12.3 48.8°
Maximum altitude 15:01:42 11° 214° (SW) 4,851 12.2 48.2°
Drops below altitude 10° 15:04:59 10° 201° (SSW) 5,156 12.2 47.7°
Sets 15:14:53 0° 173° (S) 6,632 12.3 45.9°
